Theta_e
320 337 330 320 306 301 296 299 308 305 306 311 313 312 313 315 312 308 331 336 340 343 347 347 345 345 346 348 348 349 348 348 347 347 346 345 344 343 344 345 345 345 343 342 342 340 339 337 338
321 324 322 310 299 293 295 302 303 307 310 315 316 317 315 314 324 326 330 337 342 345 347 346 343 344 347 348 349 348 347 347 347 346 346 345 343 342 341 343 345 344 342 340 340 338 337 338 339
314 317 312 305 298 294 295 303 305 310 310 313 315 319 318 319 326 328 335 338 343 343 346 345 343 345 347 348 348 347 346 347 346 346 345 343 342 340 340 340 343 343 342 341 338 338 335 336 338
308 307 303 299 296 300 301 306 309 309 310 315 317 315 322 328 328 332 338 339 341 343 345 343 344 345 347 347 347 346 346 346 345 344 345 343 341 340 341 341 341 340 340 338 336 336 334 333 335
309 303 296 294 294 300 302 305 310 309 310 312 315 314 318 329 335 337 338 339 339 341 344 345 343 344 345 347 346 346 345 344 344 344 343 343 342 341 340 339 339 339 336 336 334 333 332 331 331
304 302 293 291 294 298 301 305 311 310 310 313 315 317 319 331 332 335 338 338 340 340 344 345 337 339 342 345 345 345 344 344 343 343 342 342 341 341 339 338 337 334 334 333 332 331 329 328 327
302 298 294 295 296 298 302 307 308 308 310 310 319 314 321 327 334 336 337 338 340 341 342 343 343 340 336 340 340 341 342 342 342 340 340 339 338 338 338 337 337 334 334 332 331 330 328 327 327
302 299 294 295 295 297 303 302 307 309 308 319 321 313 316 327 334 335 336 337 337 339 340 340 341 342 342 342 333 335 338 338 338 336 334 332 332 332 333 332 335 335 334 332 331 329 328 328 328
306 295 295 296 297 300 300 301 303 308 313 317 320 319 322 333 334 332 332 333 333 335 336 338 339 340 340 339 334 332 332 332 332 331 327 328 333 332 330 329 333 336 335 332 330 328 328 326 325
302 295 296 300 301 301 298 299 300 308 311 315 318 324 330 331 330 328 328 330 331 331 334 336 337 337 339 338 337 339 337 337 334 333 333 332 332 331 330 327 328 331 331 331 330 329 327 324 325
303 298 300 301 304 301 298 298 300 306 308 313 316 320 326 328 328 327 328 330 330 330 331 334 335 336 337 335 336 337 336 334 332 331 330 330 329 330 330 331 331 331 324 329 329 328 327 324 324
299 304 304 304 304 303 299 299 298 302 306 304 314 324 326 326 326 326 327 328 328 329 330 332 334 335 336 335 335 335 334 333 331 330 328 327 326 327 328 329 330 329 328 327 328 326 325 323 323
301 303 305 305 304 303 302 298 298 298 301 311 320 325 324 325 326 328 329 329 329 327 328 330 333 333 334 333 333 334 333 332 331 330 327 326 324 324 324 326 328 327 325 325 324 323 323 322 323
303 302 302 303 303 303 300 298 298 301 308 320 323 323 323 324 326 327 327 328 328 329 328 330 332 332 334 333 333 333 333 332 331 330 329 327 325 324 323 323 324 325 324 324 323 323 322 323 323
300 297 299 301 302 301 302 297 295 300 313 316 319 319 322 325 326 326 327 326 328 329 329 330 332 333 333 333 332 333 333 332 332 331 330 328 326 325 324 324 323 324 323 323 323 322 322 323 322
294 294 290 298 301 302 298 293 299 300 301 311 313 319 319 322 325 327 328 327 328 328 327 330 331 333 332 332 333 333 333 333 332 332 332 330 329 327 325 324 324 325 324 323 323 323 323 322 322
290 285 287 292 301 299 296 295 298 300 298 298 309 314 318 320 322 324 327 327 327 329 328 328 330 331 332 332 333 334 334 333 333 334 332 331 329 328 327 326 326 326 324 324 324 322 321 322 322
282 284 288 288 293 297 294 293 297 299 297 297 298 299 305 310 315 321 324 326 327 328 330 330 330 330 330 331 333 333 334 333 334 333 333 332 331 329 327 326 325 324 323 322 322 322 323 322 321
289 288 287 291 293 292 290 291 295 298 296 295 298 298 301 305 305 307 312 318 326 326 327 328 328 329 329 328 330 329 331 331 332 333 333 332 332 331 329 328 326 325 324 324 323 322 321 321 323
288 285 285 289 292 290 287 288 294 295 295 295 296 299 297 295 300 301 301 305 310 320 323 327 327 328 330 331 332 330 330 331 332 332 332 331 331 330 328 328 327 326 325 324 324 323 322 322 323
285 284 285 286 289 290 287 285 288 294 293 294 295 295 293 293 296 295 297 295 298 299 304 311 318 327 329 330 329 329 330 331 329 329 329 330 330 329 329 328 327 327 326 324 324 323 322 320 322
282 289 288 286 285 281 285 280 284 292 293 292 292 292 292 292 291 292 292 292 292 294 297 302 310 322 327 329 328 328 327 326 329 330 330 331 330 330 329 329 328 328 327 326 325 325 324 323 320
285 289 287 287 283 280 281 278 282 288 291 287 290 291 290 289 289 288 289 290 290 291 292 296 303 307 311 318 324 328 328 330 329 328 328 329 329 330 330 329 329 328 328 328 326 325 324 324 323
289 286 285 284 282 276 279 278 279 281 287 287 290 290 289 288 287 287 287 288 288 289 290 293 296 298 303 307 309 313 318 325 326 327 326 327 328 326 319 325 327 328 328 326 326 326 325 324 324
287 283 276 272 272 273 278 277 279 285 287 288 290 288 287 287 286 285 285 285 286 286 287 291 291 292 295 300 301 303 307 313 317 320 322 323 321 312 310 312 312 312 313 312 314 316 312 311 315
284 283 274 266 269 273 279 276 279 286 287 287 286 286 286 286 285 284 283 284 284 285 285 287 288 289 291 295 296 298 300 304 305 305 307 307 305 305 307 307 308 308 310 310 310 309 307 306 305
284 280 283 276 269 273 277 279 285 287 285 285 285 285 284 284 284 283 283 282 283 283 284 285 286 287 288 291 294 294 295 296 297 299 300 301 302 303 301 302 301 302 302 302 301 300 298 297 297
285 286 278 277 268 267 274 277 278 283 285 285 284 283 283 283 282 282 282 282 282 283 283 284 285 286 287 289 292 292 292 293 293 294 293 294 296 297 297 297 297 296 297 298 297 295 295 294 294
282 279 281 279 277 270 270 274 284 284 286 286 285 284 284 283 281 281 281 281 282 282 282 283 284 284 286 288 289 290 290 290 291 290 290 290 291 292 293 293 292 292 292 293 291 290 290 289 288
286 283 281 276 272 274 275 274 287 287 287 287 286 285 283 282 281 280 280 281 281 281 282 282 283 284 285 286 287 288 287 287 287 287 287 288 288 289 289 289 288 288 288 288 287 285 285 285 284
Wind_Speed
3 5 2 4 2 2 3 5 1 3 3 4 4 5 11 4 6 4 3 6 16 18 16 18 19 18 17 15 16 15 15 17 16 17 17 18 18 17 16 15 15 18 18 17 17 16 15 14 12
3 3 3 2 3 2 4 4 6 7 4 4 4 2 3 3 2 6 9 9 19 17 15 17 18 19 17 15 16 16 17 16 17 16 19 18 17 16 15 15 15 16 18 17 15 15 13 13 13
4 3 4 2 3 5 4 5 8 2 1 4 3 2 1 3 2 11 3 16 18 16 15 15 18 18 17 14 17 17 16 18 18 18 18 18 16 15 14 14 14 15 16 17 13 14 13 14 13
2 1 4 1 6 5 5 2 4 2 2 3 3 5 2 3 6 5 15 18 17 15 15 15 18 19 17 14 16 16 17 17 15 15 15 16 16 15 14 12 13 12 16 14 13 13 13 14 13
3 3 3 4 5 5 5 2 4 3 1 2 2 3 3 3 5 14 17 16 18 15 15 15 16 17 17 15 16 16 15 15 15 14 14 14 15 15 14 12 12 15 14 13 13 12 12 13 13
1 1 3 6 5 4 5 6 3 4 0 4 3 4 3 1 9 11 14 16 16 16 14 13 12 13 15 14 15 15 15 15 14 13 13 14 13 14 14 13 12 12 13 12 12 12 11 12 12
4 4 4 4 10 4 5 5 5 6 5 3 7 6 2 3 8 10 14 15 14 15 14 13 12 11 11 12 12 12 14 14 13 13 12 11 11 13 14 13 12 11 11 10 10 10 10 10 11
4 2 6 6 5 5 4 3 2 6 4 4 0 5 4 7 11 10 11 12 14 11 10 12 11 10 10 9 11 13 12 12 11 11 11 9 9 10 11 10 12 11 10 9 8 8 9 9 9
2 2 13 7 7 4 1 4 2 2 4 4 3 4 2 18 13 12 12 11 12 9 9 9 11 11 9 8 8 11 12 11 11 9 9 9 5 7 8 8 11 10 8 7 7 7 7 7 6
4 5 8 5 3 3 2 3 2 2 4 1 3 6 12 15 14 15 14 15 14 13 11 11 10 11 10 7 9 9 8 7 7 8 8 5 6 5 6 6 8 10 7 6 5 6 6 4 2
6 4 3 4 8 5 1 1 1 3 3 6 7 11 14 16 12 12 11 12 14 13 9 10 9 11 11 9 6 4 4 5 5 8 6 6 4 4 3 3 3 4 5 3 3 3 2 1 1
7 6 4 3 6 6 1 4 3 5 3 5 4 16 16 16 15 13 12 11 13 12 11 11 10 8 9 8 7 7 6 5 5 6 7 6 4 4 4 3 4 4 3 3 2 1 1 2 2
9 8 6 4 8 12 8 4 2 4 3 3 8 13 14 14 13 10 11 11 12 13 12 12 10 9 8 9 6 7 7 6 7 6 6 6 5 4 4 3 3 3 3 3 2 1 2 3 3
9 6 4 4 2 8 8 2 3 4 2 9 14 11 14 16 14 11 11 13 13 12 13 14 11 10 9 9 8 7 6 7 7 6 7 7 5 5 4 4 4 3 3 2 2 3 2 2 3
7 9 3 5 6 4 10 2 7 2 2 8 11 11 15 16 11 12 12 11 13 12 14 15 12 11 12 11 10 7 7 7 7 6 8 8 7 6 6 4 4 4 3 4 3 3 2 3 2
5 6 5 1 6 1 4 7 3 2 1 5 7 8 12 14 13 10 11 13 13 12 15 14 12 11 11 11 10 7 8 7 7 6 6 9 9 8 6 5 5 5 4 4 3 2 3 3 3
4 6 4 1 9 3 4 4 3 7 1 4 5 5 6 6 7 7 10 11 13 13 14 14 13 11 11 11 9 9 10 8 8 7 6 7 7 8 7 6 5 5 4 4 3 3 3 2 3
8 6 4 3 5 5 3 9 6 10 4 6 4 5 6 4 3 0 3 5 9 11 12 12 12 14 10 8 7 6 6 6 5 6 6 8 7 9 7 5 5 5 4 4 3 5 4 3 2
11 10 7 5 3 4 4 8 5 10 8 5 6 6 4 6 6 7 7 5 6 6 8 12 12 13 10 7 7 7 7 6 5 6 8 8 7 8 8 5 5 5 5 6 6 3 4 3 2
7 13 5 2 5 3 5 6 7 6 7 4 6 4 6 6 7 12 11 8 10 4 1 5 8 11 10 7 6 3 4 3 5 7 7 8 8 8 7 7 6 7 5 5 5 5 2 2 3
3 8 5 2 3 2 3 4 4 5 3 3 2 5 7 8 9 9 9 10 10 11 10 7 3 6 7 6 3 3 2 1 3 2 3 5 8 8 8 8 7 7 6 5 6 6 6 4 2
5 6 8 9 3 1 1 1 2 7 6 4 8 9 9 9 9 10 10 11 11 10 9 9 9 6 2 7 6 7 5 5 4 4 3 7 9 9 9 10 9 8 6 6 7 7 7 6 6
4 9 7 4 4 3 4 1 1 3 11 8 6 5 8 8 8 10 10 9 9 9 9 9 8 9 7 7 3 7 7 3 2 2 4 4 4 4 5 6 8 8 6 7 7 6 8 7 6
8 13 6 3 2 1 5 3 2 1 1 4 3 2 5 7 8 9 8 8 8 9 10 10 10 10 10 8 8 7 6 3 3 2 3 3 1 3 5 4 1 2 2 4 5 6 7 7 7
8 8 3 3 2 4 2 3 1 3 4 3 4 5 4 6 7 8 9 9 9 11 11 9 10 11 10 9 9 8 7 6 4 2 1 1 2 3 5 4 5 4 5 5 5 5 6 5 3
11 8 5 7 5 2 2 4 1 1 2 4 7 6 6 6 5 8 8 8 8 9 10 10 9 9 10 9 9 7 7 5 5 6 4 3 4 4 4 5 6 6 5 5 5 5 5 5 5
6 3 2 7 3 4 2 2 2 2 3 4 5 5 5 4 3 7 7 7 7 8 9 8 8 8 9 8 8 9 8 8 6 7 7 5 5 5 6 7 6 7 6 7 7 6 7 8 7
3 6 2 3 4 2 1 1 1 4 4 2 3 4 4 3 5 6 6 6 5 6 6 8 8 7 7 8 8 8 8 8 7 7 8 8 7 7 8 8 7 9 9 8 9 8 7 9 7
2 3 5 5 3 4 4 1 1 2 4 3 4 3 3 3 3 3 3 4 4 5 7 6 8 9 7 7 8 9 8 8 8 8 8 8 7 8 8 8 10 8 9 8 8 11 10 11 9
3 4 5 4 3 1 1 0 1 1 4 2 3 4 3 3 3 3 3 4 6 6 7 7 7 6 6 7 7 9 9 9 9 9 9 8 8 9 9 9 11 10 10 10 10 11 9 11 10
Wind_Direction
109 124 74 54 109 68 228 240 231 178 225 209 149 161 181 149 175 204 141 154 139 144 147 143 139 141 141 137 138 131 126 136 136 131 127 120 112 109 107 97 102 106 104 100 99 97 91 90 93
124 126 53 80 114 165 242 226 213 212 214 129 100 113 131 168 90 119 132 156 144 143 144 144 139 141 143 138 133 129 122 123 128 130 129 117 113 109 109 107 102 106 107 106 103 100 92 88 89
144 269 90 130 162 197 218 213 225 214 320 161 119 40 64 157 81 151 152 148 140 141 144 140 138 142 142 137 136 133 128 120 123 121 122 121 118 112 112 111 108 106 110 101 107 100 91 86 85
179 299 60 139 228 242 212 210 196 180 129 95 134 98 51 8 159 166 141 142 138 137 141 140 140 143 143 137 137 137 133 125 122 124 124 124 122 118 112 110 116 108 94 106 105 101 93 86 83
16 62 157 204 245 256 239 231 191 133 126 80 166 151 70 25 113 140 140 140 141 140 140 143 142 145 145 140 142 139 133 130 126 126 125 124 127 126 118 103 105 118 110 106 105 100 93 87 83
78 120 156 201 223 236 254 219 207 103 84 164 95 109 92 111 133 144 137 139 143 142 144 145 139 141 144 142 141 140 135 131 131 129 128 131 132 129 121 110 98 111 110 108 102 97 92 88 86
224 132 195 205 226 242 230 152 197 174 159 181 161 112 109 162 132 140 142 134 137 148 146 143 144 141 135 136 138 140 135 132 132 131 130 123 109 129 127 121 117 114 111 108 100 93 87 83 77
260 114 192 207 195 238 226 169 184 162 159 144 243 143 175 163 137 138 132 134 147 146 143 145 139 143 143 146 138 138 132 131 129 128 127 124 115 104 116 125 122 123 121 112 100 89 81 72 69
283 147 212 199 171 225 193 178 192 313 132 145 107 100 94 134 137 133 138 141 150 148 144 148 145 147 141 141 142 133 133 132 129 129 126 119 126 120 117 123 134 128 128 125 112 95 84 77 60
175 168 201 185 159 222 303 225 184 154 151 295 84 62 134 144 155 152 161 156 151 156 158 155 157 154 145 141 149 144 139 142 143 141 141 133 134 135 133 138 140 123 130 127 122 108 88 69 47
151 244 186 60 36 320 227 211 266 122 260 203 180 156 164 153 160 160 166 162 155 150 155 156 160 160 154 156 148 146 144 144 146 146 146 141 137 138 142 144 129 127 119 118 106 95 80 58 2
178 215 220 67 36 326 224 308 212 168 247 36 162 159 165 160 164 165 161 156 149 153 159 166 163 160 155 158 164 158 155 157 154 156 149 146 147 152 157 168 160 155 159 160 162 158 227 276 284
213 183 194 27 35 329 289 235 190 234 209 133 159 155 163 170 160 161 156 159 153 158 168 172 163 169 153 163 166 163 163 166 166 163 164 158 160 167 161 171 181 180 173 186 192 237 255 268 280
166 129 79 135 304 310 293 241 255 212 153 124 157 170 172 175 165 151 160 167 168 162 173 173 165 176 163 169 170 172 171 169 169 175 179 180 175 169 177 178 191 200 201 197 214 230 239 266 285
106 133 185 193 130 264 331 222 249 111 189 158 166 167 176 178 158 168 166 176 179 175 173 177 166 171 174 171 178 179 179 176 179 186 185 188 187 187 179 184 204 209 201 206 211 221 231 258 270
113 82 179 209 154 115 311 195 255 197 94 170 173 175 172 179 177 178 177 179 181 173 175 175 177 172 179 178 175 179 182 183 192 193 194 196 197 193 189 196 210 199 198 204 217 227 251 255 254
17 138 144 294 187 124 230 209 46 355 135 242 176 182 154 172 193 181 178 175 175 175 174 178 182 177 182 187 177 179 187 190 198 197 196 197 197 196 199 203 216 199 201 208 213 224 231 253 259
154 124 119 94 20 162 197 277 27 337 9 258 212 173 167 167 86 341 211 193 182 180 176 175 179 184 181 185 180 187 192 201 197 196 195 186 191 189 193 201 203 183 189 207 206 214 209 235 261
117 111 104 95 2 19 13 294 298 316 328 304 259 182 171 169 101 65 33 331 209 183 168 175 176 184 179 182 181 201 197 188 193 195 202 191 190 187 187 199 184 179 196 211 204 203 220 237 203
102 112 85 83 128 67 359 291 265 277 287 258 251 220 139 122 75 50 39 22 26 35 318 173 192 175 184 189 192 184 182 192 188 192 191 186 182 182 181 185 196 191 194 202 203 196 201 224 186
104 110 123 126 99 84 305 277 194 243 225 269 17 66 62 84 92 66 59 37 31 29 5 354 343 192 185 196 163 132 126 116 163 169 180 186 184 185 189 192 194 195 194 206 203 197 199 227 200
106 144 148 157 111 163 298 167 242 203 239 15 45 29 53 67 64 56 48 44 29 19 13 5 15 23 135 164 177 208 189 191 205 200 201 197 196 196 192 192 193 201 197 201 205 201 209 208 228
140 125 117 113 107 111 317 137 270 174 226 78 37 21 55 65 65 53 41 41 32 22 18 11 28 39 11 33 6 198 214 211 188 182 181 195 190 192 215 213 201 195 201 208 201 198 207 209 221
136 85 54 80 131 175 207 185 350 123 182 116 153 55 43 48 56 55 37 29 26 22 27 26 27 28 21 29 29 29 18 244 190 195 235 237 196 87 47 29 303 206 215 221 223 223 224 224 227
111 118 112 56 73 210 308 153 132 332 353 8 191 140 92 65 51 50 40 23 20 22 25 30 28 29 17 31 35 27 15 6 32 55 91 184 123 62 30 41 52 55 56 55 41 45 48 40 43
167 169 149 157 185 169 15 220 171 341 24 74 60 92 86 67 70 59 43 29 22 23 27 27 30 28 24 30 35 30 32 37 38 31 48 67 87 85 71 68 63 64 66 75 77 72 72 43 55
176 179 152 111 33 76 189 78 260 165 78 72 90 90 90 86 67 65 52 36 22 25 30 25 30 29 26 26 41 36 36 40 52 50 45 44 51 71 68 63 72 62 64 69 72 75 77 70 64
158 151 95 19 112 114 297 243 112 331 354 130 113 111 100 85 48 38 43 36 27 32 37 33 36 37 28 30 42 47 43 46 46 57 57 53 40 62 67 68 62 63 67 74 88 78 73 76 62
127 87 65 99 86 154 134 276 290 309 307 199 161 156 137 110 89 73 58 54 51 38 37 38 38 34 31 36 46 52 48 51 56 57 59 57 51 45 69 69 68 64 63 67 83 80 70 79 74
280 154 122 125 235 130 121 221 233 17 359 125 165 148 122 104 96 77 48 45 41 41 36 36 33 39 31 45 52 57 55 53 56 56 50 57 56 61 59 72 73 71 67 63 68 77 73 76 72